Henderson, KY

8:52 PM CST on December 08, 2019 (GMT -0600)
Henderson City-County

Weather History for KEHR - October, 2019

Change the Weather History Date:

Saturday, October 26, 2019

  Actual Average Record
Temperature  
Mean Temperature 60 °F -  
Max Temperature 68 °F 67 °F 93 °F (1940)
Min Temperature 52 °F 42 °F 21 °F (1942)
Degree Days  
Heating Degree Days 5    
Growing Degree Days 10 (Base 50)    
Moisture  
Dew Point 56 °F    
Average Humidity 93    
Maximum Humidity 100    
Minimum Humidity 82    
Precipitation  
Precipitation 1.75 in - - ()
Sea Level Pressure  
Sea Level Pressure 29.72 in    
Wind  
Wind Speed 13 mph (ESE)    
Max Wind Speed 33 mph    
Max Gust Speed 40 mph    
Visibility 8 miles    
Events Rain    
Averages and records for this station are not official NWS values.
T = Trace of Precipitation, MM = Missing Value Source: NWS Daily Summary

Daily Weather History Graph

Daily Weather History Graph

Search for Another Location

Airport or City:

Astronomy

Oct. 26, 2019 Rise Set
Actual Time 7:09 AM CDT 5:59 PM CDT
Civil Twilight 6:42 AM CDT 6:25 PM CDT
Nautical Twilight 6:12 AM CDT 6:56 PM CDT
Astronomical Twilight 5:41 AM CDT 7:27 PM CDT
Moon 5:08 AM CDT (10/26) 5:31 PM CDT (10/26)
Length of Visible Light 11h 43m
Length of Day
10h 49m
Waning Crescent, 3% of the Moon is Illuminated
Oct 26
Waning Crescent
Oct 27
New
Nov 4
First Quarter
Nov 12
Full
Nov 19
Last Quarter

Hourly Weather History & Observations

Time (CDT) Temp. Dew Point Humidity Pressure Visibility Wind Dir Wind Speed Gust Speed Precip Events Conditions
12:26 AM 53.6 °F 51.8 °F 94% 30.08 in 10.0 mi NE 6.9 mph - 0.03 in Rain Light Rain
12:56 AM 54.0 °F 52.0 °F 93% 30.06 in 10.0 mi NE 9.2 mph - 0.05 in Rain Light Rain
1:56 AM 53.1 °F 51.1 °F 93% 30.02 in 10.0 mi NE 10.4 mph - 0.03 in Rain Light Rain
2:31 AM 53.6 °F 51.8 °F 94% 29.99 in 10.0 mi NE 11.5 mph - 0.04 in Rain Light Rain
2:34 AM 53.6 °F 51.8 °F 94% 29.99 in 10.0 mi NE 13.8 mph - 0.04 in Rain Light Rain
2:41 AM 53.6 °F 51.8 °F 94% 30.00 in 9.0 mi NNE 10.4 mph - 0.05 in Rain Rain
2:56 AM 53.1 °F 51.1 °F 93% 29.98 in 7.0 mi NE 13.8 mph - 0.08 in Rain Rain
3:56 AM 52.0 °F 51.1 °F 97% 29.94 in 5.0 mi NE 12.7 mph - 0.09 in Rain Light Rain
4:56 AM 53.1 °F 52.0 °F 96% 29.90 in 5.0 mi NE 15.0 mph - 0.11 in Rain Rain
5:49 AM 53.6 °F 51.8 °F 94% 29.87 in 7.0 mi ENE 10.4 mph - 0.05 in Rain Light Rain
5:56 AM 53.1 °F 52.0 °F 96% 29.86 in 10.0 mi ENE 11.5 mph - 0.06 in Rain Light Rain
6:44 AM 53.6 °F 53.6 °F 100% 29.83 in 5.0 mi ENE 16.1 mph - 0.12 in Rain Rain
6:56 AM 54.0 °F 53.1 °F 97% 29.83 in 3.0 mi ENE 11.5 mph - 0.20 in Rain Heavy Rain
7:38 AM 55.4 °F 53.6 °F 94% 29.81 in 5.0 mi ENE 10.4 mph - 0.16 in Rain Light Rain
7:56 AM 55.0 °F 54.0 °F 96% 29.81 in 5.0 mi ENE 10.4 mph - 0.21 in Rain Rain
8:56 AM 55.9 °F 55.0 °F 97% 29.77 in 8.0 mi ENE 15.0 mph - 0.24 in Rain Light Rain
9:56 AM 57.0 °F 55.9 °F 96% 29.74 in 4.0 mi East 8.1 mph - 0.20 in Rain Rain
10:56 AM 59.0 °F 57.9 °F 96% 29.69 in 2.5 mi East 10.4 mph - 0.16 in Rain Rain
11:01 AM 59.0 °F 57.2 °F 94% 29.69 in 3.0 mi East 10.4 mph - 0.01 in Rain Light Rain
11:46 AM 62.6 °F 60.8 °F 94% 29.65 in 8.0 mi ESE 9.2 mph 16.1 mph 0.06 in Rain Rain
11:56 AM 63.0 °F 62.1 °F 97% 29.63 in 7.0 mi East 8.1 mph 16.1 mph 0.07 in Rain Light Rain
12:19 PM 64.4 °F 62.6 °F 94% 29.60 in 10.0 mi ESE 11.5 mph - 0.02 in Rain Light Rain
12:56 PM 64.9 °F 64.0 °F 97% 29.57 in 10.0 mi ESE 13.8 mph 21.9 mph 0.04 in   Overcast
1:27 PM 66.2 °F 64.4 °F 94% 29.54 in 10.0 mi ESE 12.7 mph 23.0 mph 0.00 in Rain Light Rain
1:56 PM 66.9 °F 64.9 °F 93% 29.50 in 10.0 mi ESE 12.7 mph 21.9 mph 0.01 in   Overcast
2:56 PM 68.0 °F 64.9 °F 90% 29.44 in 10.0 mi ESE 15.0 mph 23.0 mph 0.01 in Rain Light Rain
3:50 PM 68.0 °F 66.2 °F 94% 29.46 in 2.0 mi SW 31.1 mph 40.3 mph 0.07 in Rain Heavy Rain
3:56 PM 66.0 °F 64.0 °F 93% 29.48 in 2.5 mi SSW 26.5 mph 40.3 mph 0.13 in Rain Light Rain
4:01 PM 66.2 °F 62.6 °F 88% 29.49 in 3.0 mi SSW 33.4 mph 39.1 mph 0.03 in Rain Light Rain
4:32 PM 62.6 °F 60.8 °F 94% 29.47 in 10.0 mi WSW 20.7 mph 31.1 mph 0.05 in   Mostly Cloudy
4:56 PM 64.0 °F 60.1 °F 87% 29.47 in 10.0 mi SW 15.0 mph 21.9 mph 0.05 in   Partly Cloudy
5:56 PM 63.0 °F 60.1 °F 90% 29.53 in 10.0 mi SW 23.0 mph 28.8 mph 0.01 in   Mostly Cloudy
6:19 PM 60.8 °F 55.4 °F 82% 29.56 in 10.0 mi WSW 27.6 mph 39.1 mph N/A   Overcast
6:56 PM 57.9 °F 55.0 °F 90% 29.59 in 10.0 mi SW 23.0 mph 31.1 mph N/A   Overcast
7:18 PM 55.4 °F 53.6 °F 94% 29.61 in 6.0 mi WSW 24.2 mph 33.4 mph N/A   Overcast
7:56 PM 54.0 °F 53.1 °F 97% 29.64 in 7.0 mi WSW 17.3 mph - 0.00 in Rain Light Rain
8:43 PM 53.6 °F 51.8 °F 94% 29.66 in 10.0 mi SW 17.3 mph - 0.00 in   Mostly Cloudy
8:56 PM 54.0 °F 52.0 °F 93% 29.68 in 10.0 mi SW 15.0 mph - 0.00 in   Mostly Cloudy
9:56 PM 55.0 °F 52.0 °F 89% 29.71 in 10.0 mi SW 16.1 mph - N/A   Overcast
10:56 PM 54.0 °F 51.1 °F 90% 29.75 in 10.0 mi WSW 13.8 mph - N/A   Overcast
11:56 PM 54.0 °F 50.0 °F 86% 29.79 in 10.0 mi WSW 13.8 mph 24.2 mph N/A   Overcast